Location: Rowland
(34.5359°N, 79.2929°W)
Time: 17:32:07
(UTC+00:00)

S-56A Canister/Altair - Pass Details

Date: 08 October 2022
Orbit: 638 x 2494 km, 38.9° (Epoch: 06 December)

Event Time Altitude Azimuth Distance (km) Brightness Sun altitude
Exits shadow 10:47:35 - 287° (WNW) 3,876 10.5 -6.9°
Reaches altitude 10° 10:48:50 10° 285° (WNW) 3,446 10.2 -6.6°
Maximum altitude 10:56:24 42° 218° (SW) 1,416 8.7 -5.1°
Drops below altitude 10° 11:01:40 10° 148° (SSE) 2,400 10.6 -4.0°
Sets 11:03:54 0° 140° (SE) 3,185 11.5 -3.6°
